This demonstration page uses our WeatherBlox Daily Observations layout. Learn more.

Hourly Observations for November 13, 2018

Temp ( °F °C ) Dew Point ( °F °C ) Humidity (%) Winds ( mph kmh ) Pressure ( in mb ) Visibility ( mi km ) Precip ( " mm )
12:15 am 00:15 Clear 12 -10.9 10 -12.5 88 88 WSW 5 7 30.68 1039 10 16.09344 0 0
12:35 am 00:35 Clear 13 -10.3 10 -12.1 87 87 WSW 5 7 30.68 1039 10 16.09344 0 0
12:55 am 00:55 Clear 13 -10.6 9 -12.6 85 85 W 5 7 30.68 1039 10 16.09344 0 0
1:15 am 01:15 Clear 14 -9.8 11 -11.8 86 86 W 5 7 30.68 1039 10 16.09344 0 0
1:35 am 01:35 Clear 14 -10 10 -12.1 85 85 W 6 9 30.68 1039 10 16.09344 0 0
1:55 am 01:55 Clear 14 -10 10 -12.1 85 85 W 5 7 30.68 1039 10 16.09344 0 0
2:15 am 02:15 Clear 14 -10 10 -12.2 84 84 W 7 11 30.68 1039 10 16.09344 0 0
2:35 am 02:35 Clear 15 -9.7 10 -12 84 84 WSW 6 9 30.68 1039 10 16.09344 0 0
2:55 am 02:55 Clear 14 -10 10 -12.4 83 83 WSW 5 7 30.68 1039 10 16.09344 0 0
3:15 am 03:15 Clear 16 -9.1 11 -11.7 82 82 WSW 9 15 30.68 1039 10 16.09344 0 0
3:35 am 03:35 Clear 16 -8.8 10 -12 78 78 W 8 13 30.65 1038 10 16.09344 0 0
3:55 am 03:55 Clear 16 -9.1 10 -12 80 80 W 6 9 30.65 1038 10 16.09344 0 0
4:15 am 04:15 Clear 17 -8.5 11 -11.7 78 78 W 9 15 30.65 1038 10 16.09344 0 0
4:35 am 04:35 Clear 18 -7.8 12 -11.2 77 77 WSW 6 9 30.62 1037 10 16.09344 0 0
4:55 am 04:55 Clear 18 -7.8 12 -11.1 77 77 WSW 5 7 30.62 1037 10 16.09344 0 0
5:15 am 05:15 Clear 18 -8 12 -11.3 77 77 WSW 3 6 30.62 1037 10 16.09344 0 0
5:35 am 05:35 Clear 17 -8.2 11 -11.5 77 77 W 3 6 30.62 1037 10 16.09344 0 0
5:55 am 05:55 Clear 16 -9 11 -11.8 80 80 W 5 7 30.65 1038 10 16.09344 0 0
6:15 am 06:15 Clear 15 -9.6 10 -12.1 82 82 WNW 6 9 30.65 1038 10 16.09344 0 0
6:35 am 06:35 Clear 13 -10.5 9 -12.7 84 84 W 6 9 30.65 1038 10 16.09344 0 0
6:55 am 06:55 Clear 14 -10 10 -12.2 84 84 WSW 6 9 30.65 1038 10 16.09344 0 0
7:15 am 07:15 Clear 13 -10.3 9 -12.7 83 83 W 6 9 30.65 1038 10 16.09344 0 0
7:35 am 07:35 Sunny 14 -10.1 9 -12.6 82 82 W 6 9 30.65 1038 10 16.09344 0 0
7:55 am 07:55 Sunny 14 -10.1 9 -12.6 82 82 W 5 7 30.65 1038 10 16.09344 0 0
8:15 am 08:15 Sunny 17 -8.5 11 -11.5 79 79 W 5 7 30.65 1038 10 16.09344 0 0
8:35 am 08:35 Sunny 18 -7.8 12 -11.3 76 76 W 7 11 30.62 1037 10 16.09344 0 0
8:55 am 08:55 Sunny 20 -6.9 13 -10.8 74 74 W 7 11 30.65 1038 10 16.09344 0 0
9:15 am 09:15 Sunny 21 -6.2 14 -10 75 75 W 5 7 30.65 1038 10 16.09344 0 0
9:35 am 09:35 Sunny 23 -5.1 16 -9.1 74 74 WNW 8 13 30.62 1037 10 16.09344 0 0
9:55 am 09:55 Sunny 25 -3.7 18 -7.7 74 74 WNW 7 11 30.62 1037 10 16.09344 0 0
10:15 am 10:15 Sunny 28 -2.5 20 -6.7 73 73 W 5 7 30.62 1037 10 16.09344 0 0
10:35 am 10:35 Sunny 29 -1.6 21 -6.2 71 71 W 6 9 30.59 1036 10 16.09344 0 0
10:55 am 10:55 Sunny 31 -0.4 21 -5.9 67 67 WNW 3 6 30.59 1036 10 16.09344 0 0
11:15 am 11:15 Sunny 33 0.3 22 -5.4 66 66 Calm 30.59 1036 10 16.09344 0 0
11:35 am 11:35 Sunny 34 1 21 -5.9 60 60 Calm 30.56 1035 10 16.09344 0 0
11:55 am 11:55 Sunny 36 2.2 21 -6.2 54 54 Calm 30.53 1034 10 16.09344 0 0
12:15 pm 12:15 Sunny 37 3 18 -7.9 45 45 Calm 30.53 1034 10 16.09344 0 0
12:35 pm 12:35 Sunny 39 3.7 16 -8.7 40 40 SW 3 6 30.5 1033 10 16.09344 0 0
12:55 pm 12:55 Sunny 39 4.1 14 -9.8 36 36 W 7 11 30.48 1032 10 16.09344 0 0
1:15 pm 13:15 Sunny 39 4.1 17 -8.6 39 39 W 8 13 30.48 1032 10 16.09344 0 0
1:35 pm 13:35 Sunny 40 4.2 17 -8.2 40 40 W 7 11 30.48 1032 10 16.09344 0 0
1:55 pm 13:55 Sunny 40 4.4 20 -6.8 44 44 W 8 13 30.48 1032 10 16.09344 0 0
2:15 pm 14:15 Sunny 40 4.5 21 -6.1 46 46 W 7 11 30.45 1031 10 16.09344 0 0
2:35 pm 14:35 Sunny 40 4.7 20 -6.6 44 44 WSW 6 9 30.45 1031 10 16.09344 0 0
2:55 pm 14:55 Sunny 41 5 20 -6.5 44 44 W 6 9 30.45 1031 10 16.09344 0 0
3:15 pm 15:15 Sunny 41 5.1 21 -6.1 45 45 W 5 7 30.45 1031 10 16.09344 0 0
3:35 pm 15:35 Sunny 41 5.1 20 -6.6 43 43 W 5 7 30.45 1031 10 16.09344 0 0
3:55 pm 15:55 Sunny 42 5.3 20 -6.4 43 43 W 3 6 30.45 1031 10 16.09344 0 0
4:15 pm 16:15 Sunny 41 5.1 21 -6 45 45 Calm 30.45 1031 10 16.09344 0 0
4:35 pm 16:35 Sunny 41 4.8 22 -5.5 48 48 Calm 30.45 1031 10 16.09344 0 0
4:55 pm 16:55 Sunny 40 4.6 23 -5 50 50 SW 5 7 30.45 1031 10 16.09344 0 0
5:15 pm 17:15 Sunny 39 3.9 24 -4.5 55 55 SW 3 6 30.45 1031 10 16.09344 0 0
5:35 pm 17:35 Clear 37 3 23 -4.8 57 57 SSW 5 7 30.45 1031 10 16.09344 0 0
5:55 pm 17:55 Clear 37 3 22 -5.4 54 54 SW 5 7 30.45 1031 10 16.09344 0 0
6:15 pm 18:15 Clear 37 2.5 22 -5.7 55 55 SW 5 7 30.48 1032 10 16.09344 0 0
6:30 pm 18:30 Clear 35 1.6 22 -5.8 58 58 Calm 30.48 1032 10 16.09344 0 0
6:55 pm 18:55 Clear 34 1 21 -6 60 60 SW 5 7 30.48 1032 10 16.09344 0 0
7:15 pm 19:15 Clear 33 0.3 21 -6.2 62 62 SSW 5 7 30.48 1032 10 16.09344 0 0
7:35 pm 19:35 Clear 32 -0.2 21 -6 65 65 S 3 6 30.5 1033 10 16.09344 0 0
7:55 pm 19:55 Clear 31 -0.5 21 -6 67 67 SSW 3 6 30.5 1033 10 16.09344 0 0
8:15 pm 20:15 Clear 33 0.5 20 -6.9 58 58 SSW 5 7 30.48 1032 10 16.09344 0 0
8:35 pm 20:35 Mostly Cloudy 31 -0.4 21 -6.1 66 66 SSW 3 6 30.5 1033 10 16.09344 0 0
8:55 pm 20:55 Cloudy 31 -0.3 22 -5.5 68 68 S 5 7 30.5 1033 10 16.09344 0 0
9:15 pm 21:15 Cloudy 31 -0.5 22 -5.6 69 69 S 5 7 30.5 1033 10 16.09344 0 0
9:35 pm 21:35 Cloudy 33 0.5 21 -6 62 62 S 5 7 30.48 1032 10 16.09344 0 0
9:55 pm 21:55 Cloudy 33 0.7 22 -5.6 63 63 S 6 9 30.48 1032 10 16.09344 0 0
10:15 pm 22:15 Cloudy 32 0.2 23 -5.2 67 67 S 5 7 30.48 1032 10 16.09344 0 0
10:35 pm 22:35 Cloudy 32 0 22 -5.3 68 68 S 5 7 30.48 1032 10 16.09344 0 0
10:55 pm 22:55 Partly Cloudy 31 -0.4 21 -5.9 67 67 SSW 6 9 30.5 1033 10 16.09344 0 0
11:15 pm 23:15 Clear 31 -0.7 22 -5.8 69 69 SW 7 11 30.5 1033 10 16.09344 0 0
11:35 pm 23:35 Clear 31 -0.5 21 -6.1 66 66 SSW 6 9 30.5 1033 10 16.09344 0 0
11:55 pm 23:55 Clear 31 -0.5 20 -6.5 64 64 SW 7 11 30.5 1033 10 16.09344 0 0

Powered by AerisWeather